カタログに戻る

STARLINK-34074

運用中通信VLEO
NORAD 64099·PAYLOAD·🇺🇸 United States

打ち上げ May 23, 2025 から Vandenberg Space Force Base

Loading…

次のパス (今後24時間)

TLE

最新Source: CelesTrak SupGP

元期: Sep 14, 2026, 20:41 UTC

1 64099C 25110D   26257.86229167  .00045081  00000+0  13319-2 0  2573
2 64099  53.1578 227.7737 0001454 102.8017 123.8610 15.34369231    16

AllMySatでSTARLINK-34074をリアルタイム追跡

Download on the App Store